This is the latest recevied weather packets stored in our database for station/object KG2V. If no packets are shown the sender has not sent any weather packets the latest 10 day(s).
| Time | Temp. | Humidity | Pressure | Rain* | Wind** | Luminosity | Snow |
|---|---|---|---|---|---|---|---|
| 1777690968 | 5° C | 98% | 1009.4 hPa | 0 mm | - | 0 W/m² | - |
| 1777690665 | 5° C | 98% | 1009.1 hPa | 0 mm | - | 0 W/m² | - |
| 1777690363 | 5° C | 98% | 1009.3 hPa | 0 mm | - | 0 W/m² | - |
| 1777690061 | 5° C | 98% | 1009.3 hPa | 0 mm | - | 0 W/m² | - |
| 1777689758 | 5° C | 98% | 1009.3 hPa | 0 mm | - | 0 W/m² | - |
| 1777689456 | 5° C | 98% | 1009 hPa | 0 mm | - | 0 W/m² | - |
| 1777688547 | 5° C | 97% | 1009.3 hPa | 0 mm | - | 0 W/m² | - |
| 1777688245 | 5° C | 97% | 1009 hPa | 0 mm | - | 0 W/m² | - |
| 1777687942 | 5° C | 97% | 1009.3 hPa | 0 mm | - | 0 W/m² | - |
| 1777687639 | 5° C | 97% | 1009.2 hPa | 0 mm | - | 0 W/m² | - |
| 1777674306 | 6.11° C | 90% | 1008 hPa | 0 mm | - | 70 W/m² | - |
| 1777670966 | 6.11° C | 90% | 1008 hPa | 0 mm | - | 101 W/m² | - |
| 1777670058 | 6.11° C | 91% | 1008 hPa | 0 mm | - | 132 W/m² | - |
| 1777669452 | 5.56° C | 90% | 1007.9 hPa | 1.78 mm | - | 122 W/m² | - |
| 1777668238 | 6.11° C | 91% | 1007.9 hPa | 0 mm | - | 112 W/m² | - |
| 1777667329 | 5.56° C | 90% | 1007.7 hPa | 1.78 mm | - | 122 W/m² | - |
| 1777666723 | 5.56° C | 90% | 1008 hPa | 0 mm | - | 137 W/m² | - |
| 1777666116 | 6.11° C | 90% | 1008 hPa | 1.27 mm | - | 143 W/m² | - |
| 1777665813 | 6.11° C | 90% | 1008 hPa | 1.27 mm | - | 124 W/m² | - |
| 1777665511 | 6.11° C | 91% | 1007.7 hPa | 0 mm | - | 162 W/m² | - |
| 1777665206 | 5.56° C | 90% | 1008 hPa | 0 mm | - | 164 W/m² | - |
| 1777664903 | 5.56° C | 91% | 1008 hPa | 0 mm | - | 134 W/m² | - |
| 1777664296 | 5.56° C | 91% | 1008.3 hPa | 0 mm | - | 141 W/m² | - |
| 1777663995 | 5.56° C | 91% | 1008 hPa | 0 mm | - | 140 W/m² | - |
| 1777663086 | 5.56° C | 91% | 1008.2 hPa | 1.78 mm | - | 187 W/m² | - |
* Rain latest hour (hover to see other rain measurements)
** Current wind speed in m/s (hover to see current wind gust speed)